STARLINK-1770, 46383

Orbit data source: Space-Track

STARLINK-1770, 46383 is a payload satellite owned by SpaceX/Seattle (US) in LEO that was launched on Thu, 03 Sep 2020 UTC via an FALCON 9 launch vehicle from the Air Force Eastern Test Range (AFETR). Payload-class satellites include a variety of spacecraft equipped with specific instruments for various scientific and technological missions. These include communications satellites like Starlink; space stations such as the ISS; scientific satellites like the Hubble; Earth observation satellites from companies like Planet Labs, Umbra, and HawkEye 360; GPS; miniature CubeSats for education and research; and military/defense satellites.

Loading next visibility...
Identifier
46383, 2020-062BL
Orbit
LEO
Country
Flag of USUS
Related business
Manufacturer
SpaceX/Seattle
Mission
Partially operational Commercial Communications
Bus & Motor
STARLINK, Unknown motor
Mass
260 kg wet, ~248 kg dry
Launch date (UTC)
2020-09-03 (6 years ago)
Launch vehicle
FALCON 9
Launch site
Air Force Eastern Test Range (AFETR)
Object type
Payload
Rocket body
Debris
Shape & HBR
Box + 1 Pan, 10.1 m
Radar Cross Section
13.562 m², Large (>1 m²)

Expand to show TLE details & history
Last TLE update: 12 hours ago

TLE from 12 hours ago
0 STARLINK-1770
1 46383U 20062BL  26128.12312887  .00068140  00000-0  49900-3 0  9999
2 46383  53.0397  22.4945 0005972 116.6823 243.4806 15.72555375314492
Epoch: 2026-05-08T02:57Z
TLE epoch observation values (Epoch: 2026-05-08T02:57:18.334Z)
Latitude
-0.00006°
Longitude
112.20863°
Altitude
354.296 km
Speed
7.697 km/s
True Right ascension
01h 29m 58s
True Declination
0° 00' 00"
Sunlit
Object was in daylight at epoch
Visualization orbit readout
Latitude
Unknown
Longitude
Unknown
Altitude
Unknown
Speed
Unknown
Apparent Right ascension
Unknown
Apparent Declination
Unknown
Sunlit
N/A
Visualization observer readout
Local Sidereal Time
22:34:20
Azimuth
Unknown
Elevation
Unknown
Doppler factor
Unknown
Orbital elements
Apogee altitude
355.897 km
Perigee altitude
347.858 km
Semi-major axis
6,730.014 km
Eccentricity
0.0006
Inclination
53.0397°
RAAN
22.4945°
Arg. of periapsis
116.6823°
True anomaly
243.41939°
Mean anomaly
243.4806°
Eccentric anomaly
243.44999°
Mean motion
3.93115 °/min
Orbital period
91.58 mins
BSTAR
0.000499
Loading maneuver chart data...
Computing Atmospheric mass density...
Loading historical data...
Loading historical data...
Loading historical data...
Loading historical data...
Loading historical data...
Loading historical data...
Loading historical data...

Documentation

Showing up to 5 results
|